Other Public Products
Issued by NWS Charleston, SC

Current Version | Previous Version | Graphics & Text | Print | Product List | Glossary On
Versions: 1 2 3 4 5 6 7 8 9 10 11 12 13 14 15 16 17 18 19 20 21 22 23 24 25 26 27 28 29 30 31 32 33 34 35 36 37 38 39 40 41 42 43 44 45 46 47 48 49 50
000 FPUS82 KCHS 191312 OPUCHS TEST...KCHS/KSAV Gateway Observations...TEST National Weather Service Charleston SC 900 AM EDT THU APR 19 2018 NOTE: "fair" indicates few or no clouds below 12,000 feet with no significant weather and/or obstructions to visibility. SCZ050-WAZ558-NCZ071-TXZ119-213-PAZ071-DCZ001-FLZ074-172-MI076- NYZ176-178-MAZ016-IL014-TNZ027-NJZ106-GAZ044-MD014-191400- ...Gateway Observations for Charleston International... CITY SKY/WX TMP DP RH WIND PRES REMARKS Chas Airport FAIR 70 60 70 SW14 29.93S Seattle PTCLDY 42 39 89 CALM 30.22R Charlotte FAIR 69 56 62 W10G18 29.81R Dallas DFW MOSUNNY 54 36 50 N12 30.33R Dallas Love MOSUNNY 56 33 42 N9 30.35R Philladelphia CLOUDY 51 36 56 NW13 29.69R Wash National LGT RAIN 51 43 74 W9 29.74R Baltimore CLOUDY 51 41 68 W8 29.70R Miami FAIR 74 66 76 VRB5 30.12R Detroit FAIR 39 24 55 N14 30.05R WCI 31 Newark PTSUNNY 44 40 85 N20 29.70R Laguardia CLOUDY 46 38 73 N15 29.69R J F K PTSUNNY 44 41 89 NW18 29.68R Boston Logan LGTSLEET 37 33 85 NW6 29.73F FOG WCI 32 Ft. Lauderdale FAIR 74 67 78 CALM 30.12R Chicago O`Hare FAIR 34 26 72 N10 30.23R WCI 26 Chicago Midway FAIR 37 30 75 N12 30.23R WCI 29 Houston Bush PTSUNNY 64 36 35 NE10 30.26R Houston Hobby CLOUDY 65 40 39 NE13 30.25R Nashville PTSUNNY 43 27 53 NW16 30.18R Atlanta FAIR 63 49 60 NW18 29.99R $$ GAZ044-118-TXZ119-213-NCZ071-DCZ001-MDZ014-506-PAZ021-071-NJZ106- NYZ176-178-MAZ106-OHZ011-021-055-MIZ076-KYZ091-ILZ014-INZ047- MNZ060-ONZ431-191400- ...Gateway Observations for Savannah International... CITY SKY/WX TMP DP RH WIND PRES REMARKS Savannah Arpt FAIR 69 61 75 W18 29.99S Atlanta FAIR 63 49 60 NW18 29.99R Charlotte FAIR 69 56 62 W10G18 29.81R Dallas DFW MOSUNNY 54 36 50 N12 30.33R Houston Bush PTSUNNY 64 36 35 NE10 30.26R Wash National LGT RAIN 51 43 74 W9 29.74R Wash Dulles PTSUNNY 48 46 93 CALM 29.73R Baltimore CLOUDY 51 41 68 W8 29.70R Philadelphia CLOUDY 51 36 56 NW13 29.69R Newark PTSUNNY 44 40 85 N20 29.70R Laguardia CLOUDY 46 38 73 N15 29.69R J F K PTSUNNY 44 41 89 NW18 29.68R Boston LGTSLEET 37 33 85 NW6 29.73F FOG WCI 32 Pittsburg SNOW 33 32 96 NW16 29.86R VSB 1/2 WCI 23 Akron LGT SNOW 33 29 85 NW12 29.93R VSB 3/4 WCI 24 Cleveland CLOUDY 35 28 75 NW13 29.99R WCI 26 Cincinnati CLOUDY 37 30 75 W18 30.08R WCI 27 Columbus CLOUDY 35 33 93 N14 30.03R WCI 26 Detroit FAIR 39 24 55 N14 30.05R WCI 31 Chicago O`Hare FAIR 34 26 72 N10 30.23R WCI 26 Minneapolis FAIR 33 18 53 N3 30.42R Indianapolis CLOUDY 37 30 75 N15 30.14R WCI 28 Toronto Canada PTSUNNY 34 23 64 N18G28 29.88R WCI 23 $$

USA.gov is the U.S. government's official web portal to all federal, state and local government web resources and services.